Weather History for Stillwater, OK

Change the Weather History Date:

Friday, March 29, 2013

  Actual Average Record
Temperature  
Mean Temperature 64 °F -  
Max Temperature 75 °F 64 °F 82 °F (2012)
Min Temperature 54 °F 41 °F 28 °F (2009)
Growing Degree Days 14 (Base 50)    
Moisture  
Dew Point 55 °F    
Average Humidity 75    
Maximum Humidity 93    
Minimum Humidity 50    
Precipitation  
Precipitation 0.28 in - - ()
Sea Level Pressure  
Sea Level Pressure 30.05 in    
Wind  
Wind Speed 7 mph (SE)    
Max Wind Speed 15 mph    
Max Gust Speed 20 mph    
Visibility 9 miles    
Events Rain , Thunderstorm    
Averages and records for this station are not official NWS values.
T = Trace of Precipitation, MM = Missing Value Source: NWS Daily Summary

Daily Weather History Graph

Daily Weather History Graph

Search for Another Location

Airport:

Trip Planner

Search our weather history database for the weather conditions in past years. The results will help you decide how hot, cold, wet, or windy it might be!

Date:

Astronomy

Mar. 29, 2013 Rise Set
Actual Time 7:18 AM CDT 7:48 PM CDT
Civil Twilight 6:52 AM CDT 8:13 PM CDT
Nautical Twilight 6:22 AM CDT 8:44 PM CDT
Astronomical Twilight 5:51 AM CDT 9:15 PM CDT
Moon 10:43 PM CDT (3/29) 8:33 AM CDT (3/29)
Length of Visible Light 13h 21m
Length of Day
12h 29m
Waning Gibbous, 93% of the Moon is Illuminated
Mar 29
Waning Gibbous
Apr 2
Last Quarter
Apr 10
New
Apr 18
First Quarter
Apr 25
Full

Hourly Weather History & Observations

Time (CDT) Temp. Dew Point Humidity Pressure Visibility Wind Dir Wind Speed Gust Speed Precip Events Conditions
12:53 AM 62.1 °F 51.1 °F 67% 30.08 in 10.0 mi South 8.1 mph - N/A   Overcast
1:53 AM 59.0 °F 51.1 °F 75% 30.07 in 10.0 mi SSE 6.9 mph - N/A   Partly Cloudy
2:53 AM 55.9 °F 51.1 °F 84% 30.06 in 10.0 mi South 6.9 mph - N/A   Clear
3:53 AM 57.9 °F 52.0 °F 81% 30.05 in 10.0 mi South 8.1 mph - N/A   Clear
4:53 AM 55.9 °F 52.0 °F 87% 30.05 in 10.0 mi SSE 4.6 mph - N/A   Clear
5:53 AM 55.9 °F 52.0 °F 87% 30.05 in 10.0 mi SSE 4.6 mph - N/A   Partly Cloudy
6:53 AM 54.0 °F 51.1 °F 90% 30.07 in 10.0 mi Calm Calm - N/A   Clear
7:53 AM 54.0 °F 52.0 °F 93% 30.08 in 7.0 mi East 3.5 mph - N/A   Clear
8:53 AM 59.0 °F 53.1 °F 81% 30.09 in 9.0 mi ENE 4.6 mph - N/A   Clear
9:53 AM 63.0 °F 55.0 °F 75% 30.09 in 10.0 mi Variable 4.6 mph - N/A   Clear
10:53 AM 68.0 °F 55.9 °F 65% 30.09 in 10.0 mi Calm Calm - N/A   Clear
11:53 AM 69.1 °F 55.9 °F 63% 30.09 in 10.0 mi Calm Calm - N/A   Clear
12:53 PM 71.1 °F 55.9 °F 59% 30.08 in 10.0 mi ESE 6.9 mph - N/A   Overcast
1:53 PM 73.9 °F 55.9 °F 53% 30.05 in 10.0 mi East 6.9 mph - N/A   Mostly Cloudy
2:53 PM 75.9 °F 55.9 °F 50% 30.03 in 10.0 mi East 12.7 mph - N/A   Scattered Clouds
3:53 PM 75.0 °F 55.9 °F 51% 30.02 in 10.0 mi SE 12.7 mph - N/A   Overcast
4:53 PM 72.0 °F 55.9 °F 57% 30.01 in 10.0 mi ESE 13.8 mph - N/A   Overcast
5:53 PM 72.0 °F 57.9 °F 61% 30.00 in 10.0 mi ESE 11.5 mph - N/A   Scattered Clouds
6:53 PM 71.1 °F 55.9 °F 59% 30.01 in 10.0 mi ESE 12.7 mph 19.6 mph N/A   Overcast
7:48 PM 69.8 °F 57.2 °F 64% 30.03 in 2.0 mi SE 13.8 mph 18.4 mph N/A Thunderstorm Thunderstorm
7:53 PM 66.0 °F 59.0 °F 78% 30.01 in 2.0 mi SE 15.0 mph - 0.05 in Rain , Thunderstorm Heavy Thunderstorms and Rain
8:01 PM 64.4 °F 59.0 °F 83% 30.02 in 4.0 mi SE 12.7 mph - 0.04 in Rain , Thunderstorm Heavy Thunderstorms and Rain
8:53 PM 61.0 °F 59.0 °F 93% 30.04 in 6.0 mi South 8.1 mph - 0.20 in Rain , Thunderstorm Light Thunderstorms and Rain
9:24 PM 62.6 °F 59.0 °F 88% 30.05 in 10.0 mi SE 8.1 mph - 0.03 in Rain , Thunderstorm Light Rain
9:45 PM 62.6 °F 57.2 °F 82% 30.05 in 10.0 mi SE 6.9 mph - 0.03 in   Scattered Clouds
9:53 PM 62.1 °F 57.9 °F 86% 30.03 in 10.0 mi East 8.1 mph - 0.03 in   Scattered Clouds
10:53 PM 60.1 °F 57.0 °F 90% 30.01 in 10.0 mi East 4.6 mph - N/A   Clear
11:53 PM 59.0 °F 57.0 °F 93% 30.00 in 10.0 mi East 10.4 mph - N/A   Clear